EHI
0 0 0 0 0 0 0 0 0 0 0 0 0 0 0 0 0 0 0 0 0 0 0 0 0 0 0 0 0 0 0 0 0 0 0 0 0 0 0 0 0 0 0
0 0 0 0 0 0 0 0 0 0 0 0 0 0 0 0 0 0 0 0 0 0 0 0 0 0 0 0 0 0 0 0 0 0 0 0 0 0 0 0 0 0 0
0 0 0 0 0 0 0 0 0 0 0 0 0 0 0 0 0 0 0 0 0 0 0 0 0 0 0 0 0 0 0 0 0 0 0 0 0 0 0 0 0 0 0
0 0 0 0 0 0 0 0 0 0 0 0 0 0 0 0 0 0 0 0 0 0 0 0 0 0 0 0 0 0 0 0 0 0 0 0 0 0 0 0 0 0 0
0 0 0 0 0 0 0 0 0 0 0 0 0 0 0 0 0 0 0 0 0 0 0 0 0 0 0 0 0 0 0 0 0 0 0 0 0 0 0 0 0 0 0
0 0 0 0 0 0 0 0 0 0 0 0 0 0 0 0 0 0 0 0 0 0 0 0 0 0 0 0 0 0 0 0 0 0 0 0 0 0 0 0 0 0 0
0 0 0 0 0 0 0 0 0 0 0 0 0 0 0 0 0 0 0 0 0 0 0 0 0 0 0 0 0 0 0 0 0 0 0 0 0 0 0 0 0 0 0
0 0 0 0 0 0 0 0 0 0 0 0 0 0 0 0 0 0 0 0 0 0 0 0 0 0 0 0 0 0 0 0 0 0 0 0 0 0 0 0 0 0 0
0 0 0 0 0 0 0 0 0 0 0 0 0 0 0 0 0 0 0 0 0 0 0 0 0 0 0 0 0 0 0 0 0 0 0 0 0 0 0 0 0 0 0
0 0 0 0 0 0 0 0 0 0 0 0 0 0 0 0 0 0 0 0 0 0 0 0 0 0 0 0 0 0 0 0 0 0 0 0 0 0 0 0 0 0 0
0 0 0 0 0 0 0 0 0 0 0 0 0 0 0 0 0 0 0 0 0 0 0 0 0 0 0 0 0 0 0 0 0 0 0 0 0 0 0 0 0 0 0
0 0 0 0 0 0 0 0 0 0 0 0 0 0 0 0 0 0 0 0 0 0 0 0 0 0 0 0 0 0 0 0 0 0 0 0 0 0 0 0 0 0 0
0 0 0 0 0 0 0 0 0 0 0 0 0 0 0 0 0 0 0 0 0 0 0 0 0 0 0 0 0 0 0 0 0 0 0 0 0 0 0 0 0 0 0
0 0 0 0 0 0 0 0 0 0 0 0 0 0 0 0 0 0 0 0 0 0 0 0 0 0 0 0 0 0 0 0 0 0 0 0 0 0 0 0 0 0 0
0 0 0 0 0 0 0 0 0 0 0 0 0 0 0 0 0 0 0 0 0 0 0 0 0 0 0 0 0 0 0 0 0 0 0 0 0 0 0 0 0 0 0
0 0 0 0 0 0 0 0 0 0 0 0 0 0 0 0 0 0 0 0 0 0 0 0 0 0 0 0 0 0 0 0 0 0 0 0 0 0 0 0 0 0 0
0 0 0 0 0 0 0 0 0 0 0 0 0 0 0 0 0 0 0 0 0 0 0 0 0 0 0 0 0 0 0 0 0 0 0 0 0 0 0 0 0 0 0
0 0 0 0 0 0 0 0 0 0 0 0 0 0 0 0 0 0 0 0 0 0 0 0 0 0 0 0 0 0 0 0 0 0 0 0 0 0 0 0 0 0 0
0 0 0 0 0 0 0 0 0 0 0 0 0 0 0 0 0 0 0 0 0 0 0 0 0 0 0 0 0 0 0 0 0 0 0 0 0 0 0 0 0 0 0
0 0 0 0 0 0 0 0 0 0 0 0 0 0 0 0 0 0 0 0 0 0 0 0 0 0 0 0 0 0 0 0 0 0 0 0 0 0 0 0 0 0 0
0 0 0 0 0 0 0 0 0 0 0 0 0 0 0 0 0 0 0 0 0 0 0 0 0 0 0 0 0 0 0 0 0 0 0 0 0 0 0 0 0 0 0
0 0 0 0 0 0 0 0 0 0 0 0 0 0 0 0 0 0 0 0 0 0 0 0 0 0 0 0 0 0 0 0 0 0 0 0 0 0 0 0 0 0 0
0 0 0 0 0 0 0 0 0 0 0 0 0 0 0 0 0 0 0 0 0 0 0 0 0 0 0 0 0 0 0 0 0 0 0 0 0 0 0 0 0 0 0
0 0 0 0 0 0 0 0 0 0 0 0 0 0 0 0 0 0 0 0 0 0 0 0 0 0 0 0 0 0 0 0 0 0 0 0 0 0 0 0 0 0 0
0 0 0 0 0 0 0 0 0 0 0 0 0 0 0 0 0 0 0 0 0 0 0 0 0 0 0 0 0 0 0 0 0 0 0 0 0 0 0 0 0 0 0
0 0 0 0 0 0 0 0 0 0 0 0 0 0 0 0 0 0 0 0 0 0 0 0 0 0 0 0 0 0 0 0 0 0 0 0 0 0 0 0 0 0 0
Wind_Speed
4 4 4 5 5 5 5 5 5 5 5 6 5 6 6 6 6 5 5 5 5 5 4 4 4 3 2 1 1 0 1 2 3 1 1 2 3 4 5 5 4 3 3
3 4 4 5 5 5 6 6 6 6 6 7 7 7 8 8 7 7 7 7 6 6 5 5 4 3 3 2 1 1 0 0 1 2 2 2 2 3 4 4 3 3 3
3 4 5 5 5 5 6 6 6 6 7 8 8 8 8 8 8 7 7 7 7 6 6 5 4 4 3 3 2 2 2 2 1 2 2 2 1 2 2 2 2 1 3
3 4 4 5 5 5 5 6 6 6 7 7 8 7 7 7 8 7 8 8 7 7 7 6 5 4 3 3 3 3 3 3 3 3 2 2 2 2 2 2 1 1 1
3 4 4 4 5 5 6 6 6 7 8 7 7 7 7 7 7 7 7 8 7 7 7 7 6 6 4 3 3 3 3 3 3 3 2 2 1 1 1 1 1 0 1
3 4 4 4 5 5 5 6 7 7 7 7 8 8 9 8 12 13 9 7 7 7 7 6 7 8 8 8 8 7 5 3 2 2 1 1 1 1 1 1 1 1 2
3 4 4 4 5 5 6 6 7 6 7 8 8 8 8 10 13 13 12 7 6 6 6 5 5 6 8 6 8 9 8 7 4 2 1 1 1 1 2 1 1 2 3
3 4 4 4 5 5 5 6 6 5 6 6 7 7 6 8 12 12 11 6 6 5 5 5 4 5 4 5 5 5 4 4 4 2 2 2 2 3 3 3 3 2 3
4 3 3 4 4 5 5 5 4 4 5 5 4 5 5 5 9 9 8 4 4 4 4 4 3 4 7 8 5 4 4 4 6 5 3 2 4 5 4 2 1 0 3
4 3 3 4 4 4 4 4 3 4 4 3 3 3 3 3 6 8 7 3 3 3 3 4 5 5 6 6 3 2 2 2 3 4 5 6 5 5 6 1 3 2 2
4 4 4 4 4 4 3 3 3 3 3 2 2 2 2 3 4 6 6 2 1 1 1 2 3 6 7 7 4 1 4 2 1 2 3 3 3 2 2 2 1 4 4
5 4 4 4 3 3 3 3 2 3 2 1 1 1 2 3 3 3 4 3 2 1 1 2 3 7 7 7 4 5 6 4 1 2 2 2 2 2 3 3 3 4 5
5 5 4 4 3 4 4 3 2 2 2 2 2 1 2 1 3 4 4 5 4 0 2 5 6 7 6 4 6 6 4 1 1 2 2 2 2 3 3 3 4 4 6
6 6 5 4 4 3 3 3 3 3 3 2 2 2 2 1 2 1 1 2 3 3 2 5 7 7 4 4 4 3 2 2 2 2 3 3 3 2 2 2 3 3 4
7 6 5 5 4 4 3 3 3 3 4 4 3 3 3 3 4 5 2 2 2 3 2 1 2 2 2 2 2 2 2 2 2 2 2 3 4 3 3 3 3 4 4
7 6 5 4 4 4 3 1 3 4 4 5 6 5 4 4 5 5 5 6 7 8 2 0 1 2 2 2 3 3 2 3 2 3 3 3 4 4 5 5 4 5 7
8 7 5 5 5 5 4 4 3 3 4 5 5 6 5 5 5 5 6 7 7 6 1 1 2 3 3 3 3 3 3 3 3 3 4 4 4 5 5 6 6 6 7
8 9 8 6 5 5 5 4 4 3 3 3 4 7 7 7 6 7 7 5 2 2 2 2 3 3 3 3 4 4 4 4 4 4 4 5 5 5 6 6 6 7 8
8 6 6 5 5 5 5 4 4 4 3 3 2 4 7 7 7 7 6 2 3 3 3 3 4 4 4 4 4 4 4 5 5 5 5 6 5 5 7 7 7 12 12
7 11 9 6 5 5 4 4 4 4 4 3 4 3 2 2 2 3 2 2 3 4 4 4 4 4 4 4 4 4 5 5 6 6 6 6 6 6 8 9 9 9 9
6 8 12 7 6 5 5 5 4 4 4 4 4 5 6 4 4 4 3 3 4 4 4 4 4 4 4 4 4 5 6 6 6 6 6 6 6 7 8 8 9 10 10
6 6 6 6 5 5 5 4 4 4 5 5 4 4 8 4 3 3 4 4 4 4 4 4 4 4 5 5 5 6 6 7 7 7 7 7 7 8 9 9 9 10 10
6 7 6 5 5 7 6 4 4 4 4 4 4 4 4 4 4 4 4 4 4 4 4 4 5 5 5 5 6 6 7 8 8 8 8 8 8 8 9 10 12 12 13
6 7 7 6 5 5 5 5 5 5 5 5 5 4 4 4 4 5 4 4 4 4 4 4 5 8 10 8 6 6 8 9 9 9 11 11 11 10 10 12 13 15 14
6 6 6 6 6 6 5 5 5 5 5 5 5 4 4 4 4 4 4 4 5 5 7 6 6 7 9 11 10 9 14 19 18 13 11 11 13 13 13 15 14 15 15
6 6 6 6 6 6 6 6 6 6 5 5 4 4 4 4 4 5 4 4 5 5 6 6 7 9 10 10 12 15 18 20 21 22 15 11 13 13 14 14 16 16 17
Wind_Direction
11 18 21 12 7 9 15 11 8 10 15 22 24 30 31 26 25 35 36 34 44 40 33 41 43 43 53 53 51 207 223 207 223 132 105 120 156 161 154 142 151 177 220
23 36 30 20 18 22 21 18 24 30 29 33 37 41 39 36 34 40 43 43 49 51 45 53 49 49 48 43 52 70 82 86 169 166 141 135 149 159 143 151 167 191 209
42 45 38 29 27 28 27 28 34 40 40 40 43 44 42 40 42 44 50 51 52 51 48 53 49 51 47 39 39 42 47 52 64 123 125 115 115 133 131 147 174 199 230
56 53 47 37 33 36 38 39 40 45 48 46 47 47 47 47 46 46 52 54 54 51 47 47 44 48 59 56 51 51 56 60 62 82 89 94 102 106 115 140 178 198 246
70 63 54 48 45 46 48 48 49 52 54 51 51 48 46 50 50 52 53 58 58 56 49 42 41 51 69 82 79 67 65 64 62 63 68 78 89 103 130 137 178 78 287
78 70 63 60 57 54 54 55 57 57 55 54 53 52 51 52 58 63 66 59 58 56 50 39 35 35 43 61 82 81 78 76 71 66 58 69 68 74 96 119 128 99 295
82 75 72 70 66 61 64 61 57 57 58 57 53 52 53 55 60 65 70 66 60 54 48 41 39 37 42 38 48 49 44 48 63 102 113 120 155 166 142 145 189 200 229
95 83 81 82 80 76 73 69 64 62 63 63 55 48 48 55 61 65 68 57 55 48 42 39 37 16 25 45 43 38 29 21 32 78 138 176 188 192 187 191 205 229 259
108 97 91 94 94 91 85 79 74 77 71 63 57 50 43 39 59 65 65 46 46 31 20 23 36 10 21 42 46 34 25 9 28 40 33 323 291 285 252 182 195 303 303
130 119 112 110 111 108 103 96 89 92 89 79 61 41 33 15 51 65 67 48 39 16 6 5 11 17 14 30 59 39 8 334 349 355 354 349 347 332 327 240 179 183 225
139 132 129 129 131 129 120 115 117 110 103 91 72 15 358 5 25 46 62 79 57 29 12 348 332 348 350 345 355 325 289 299 326 330 320 319 330 337 341 341 189 175 191
148 149 153 156 157 148 141 138 135 133 126 130 130 323 325 333 341 358 22 33 75 109 318 293 296 318 330 335 336 308 315 356 8 324 316 316 320 310 303 300 280 245 224
160 168 172 174 173 165 166 170 169 171 175 196 205 228 274 302 327 351 4 359 3 44 272 296 307 318 331 335 318 325 355 6 315 301 293 283 265 262 277 291 287 272 261
174 178 177 172 170 170 175 174 173 181 189 201 209 223 247 266 271 286 317 331 337 326 311 318 329 333 340 330 328 346 346 294 272 258 269 271 273 274 277 277 287 305 297
179 181 180 177 168 168 171 184 182 200 196 195 206 206 208 239 250 250 242 240 252 259 276 297 338 336 339 333 321 311 306 315 320 297 285 289 293 293 292 294 283 291 280
181 184 182 175 173 170 165 173 216 207 211 203 201 203 228 243 267 283 294 299 307 309 321 295 297 298 294 295 298 299 295 291 284 280 279 278 286 291 293 290 281 280 281
185 184 180 178 177 178 179 181 203 244 248 243 239 239 243 261 275 285 290 297 307 326 332 271 272 276 277 279 277 272 272 275 276 277 274 275 276 279 281 284 283 279 277
185 187 184 184 184 185 189 192 195 208 234 258 261 257 259 265 273 283 289 295 297 303 256 261 263 265 266 268 269 269 273 280 276 271 268 267 266 270 274 273 271 270 275
184 185 184 181 183 186 187 189 197 209 218 232 250 270 267 270 277 288 302 260 246 258 258 257 255 257 260 262 263 264 265 269 269 267 265 264 263 263 268 268 269 275 278
186 188 180 179 181 183 185 191 199 207 218 226 234 241 251 245 246 266 266 253 251 255 256 257 258 256 257 259 262 264 267 267 268 265 264 264 262 260 265 269 270 272 272
179 184 184 182 186 188 190 197 201 204 216 227 235 240 239 227 233 242 248 250 249 253 254 255 257 259 257 256 256 260 263 266 264 264 265 265 262 263 265 266 268 269 272
176 178 181 185 187 191 194 196 198 208 219 230 238 251 267 257 237 245 249 255 252 249 247 249 254 253 249 249 252 257 262 265 264 261 262 263 262 265 266 267 269 270 271
176 180 183 184 183 200 202 197 202 210 220 226 232 237 243 243 244 247 251 255 259 262 261 256 258 263 258 249 242 244 255 262 262 261 265 268 267 266 266 267 268 270 270
180 183 186 185 187 194 198 203 209 217 222 227 230 234 236 240 247 253 254 259 263 265 263 259 259 263 267 269 262 252 253 260 261 260 257 259 262 264 264 265 266 266 267
183 186 187 189 194 199 203 209 215 220 225 228 229 233 235 239 246 253 257 259 265 267 271 269 264 265 268 270 271 270 274 279 278 273 262 258 260 260 263 265 267 269 268
187 189 190 192 196 199 203 212 218 219 223 227 228 231 235 241 249 255 258 260 265 269 273 273 268 269 272 275 276 278 283 286 288 287 284 276 272 270 269 270 271 272 273